Location: Staunton
(38.1490°N, 79.0720°W)
Time: 03:06:31
(UTC-04:00)

N. Korean satellite - Visible Passes

Search period start: 18 September 2021 00:00
Search period end: 28 September 2021 00:00
Orbit: 448 x 499 km, 97.3° (Epoch: 17 September)

Date Brightness Start Highest point End Pass type
(mag) Time Alt. Az. Time Alt. Az. Time Alt. Az.
18 Sep 8.8 05:59:04 10° NE 06:02:07 28° E 06:05:12 10° SSE visible
19 Sep 9.9 05:32:43 10° ENE 05:34:15 12° E 05:35:46 10° ESE visible
20 Sep 6.5 06:36:23 10° N 06:39:54 82° WNW 06:43:28 10° SSW visible
21 Sep 8.2 06:08:50 10° NNE 06:12:08 38° E 06:15:30 10° SSE visible
22 Sep 9.7 05:41:55 10° NE 05:44:18 17° E 05:46:40 10° SE visible
24 Sep 7.4 06:18:37 10° NNE 06:22:06 54° E 06:25:38 10° S visible
25 Sep 9.2 05:51:24 10° NE 05:54:16 23° E 05:57:09 10° SSE visible
27 Sep 6.8 06:28:25 10° NNE 06:32:00 77° ESE 06:35:36 10° S visible
